Location: Unspecified
(0.0000°N, 0.0000°E)
Time: 20:00:40
(UTC+00:00)

STARLINK-1172 - Pass Details

Date: 24 June 2025
Orbit: 546 x 548 km, 53.1° (Epoch: 20 July)

Event Time Altitude Azimuth Distance (km) Brightness Sun altitude
Exits shadow 04:18:25 24° 151° (SSE) 1,141 5.2 -23.7°
Maximum altitude 04:19:29 28° 124° (SE) 1,049 5.3 -23.5°
Drops below altitude 10° 04:23:01 10° 65° (ENE) 1,804 7.4 -22.7°
Sets 04:25:28 0° 53° (NE) 2,694 8.5 -22.1°
